Location: Cactus School
(34.5700°N, 118.0931°W)
Time: 04:11:58
(UTC-07:00)

Transit 4A - Pass Details

Date: 17 April 2024
Orbit: 871 x 971 km, 66.8° (Epoch: 20 May)

Event Time Altitude Azimuth Distance (km) Brightness Sun altitude
Rises 12:40:25 0° 173° (S) 3,564 11.3 66.2°
Reaches altitude 10° 12:43:21 10° 161° (SSE) 2,607 10.8 66.2°
Maximum altitude 12:48:15 26° 107° (ESE) 1,697 9.8 66.3°
Drops below altitude 10° 12:53:03 10° 53° (NE) 2,564 10.2 66.3°
Sets 12:55:54 0° 41° (NE) 3,494 10.7 66.3°
